Other Public Products
Issued by NWS Grand Forks, ND

Home | Current Version | Previous Version | Graphics & Text | Print | Product List | Glossary On
Versions: 1 2 3 4 5 6 7 8 9 10 11 12 13 14 15 16 17 18 19 20 21 22 23 24 25 26 27 28 29 30 31 32 33 34 35 36 37 38 39 40 41 42 43 44 45 46 47 48 49 50
819
FPUS83 KFGF 281631
OPUFGF
PRAIRIE TO PINES WEATHER ROUNDUP
NATIONAL WEATHER SERVICE EASTERN NORTH DAKOTA/GRAND FORKS ND
1100 AM CDT WED JUN 28 2017

 **SATELLITE DATA USED TO AUGMENT SKY COVER AT AUTOMATED STATIONS**
 *****  WEATHER ACROSS EASTERN NORTH DAKOTA  *****

CITY           SKY/WX    TMP DP  RH WIND       PRES   REMARKS
GRAND FORKS    HVY RAIN  61  61 100 NE14      29.50R FOG
GRAND FORKS AF LGT RAIN  61  61 100 NE8       29.51S
GRAND CITY NWS NOT AVBL
BUXTON         NOT AVBL
DEVILS LAKE    PTSUNNY   66  59  77 N18G24    29.57R
FARGO          LGT RAIN  65  65 100 NW5       29.46S FOG
WAHPETON ARPT  CLOUDY    68  61  77 CALM      29.46S
$$

 *****  WEATHER ACROSS CENTRAL AND WESTERN NORTH DAKOTA  *****

CITY           SKY/WX    TMP DP  RH WIND       PRES   REMARKS
JAMESTOWN      CLOUDY    71  62  73 NW15      29.54S
BISMARCK       FAIR      73  49  42 N9G21     29.66R
MINOT          FAIR      70  44  39 NW20      29.65S
MINOT AFB      FAIR      69  44  40 NW18      29.64S
GARRISON         N/A     67  46  47 NW15      29.67R
WILLISTON      FAIR      73  39  29 N7        29.74F
DICKINSON      FAIR      69  36  29 NW14      29.73F
HETTINGER      FAIR      72  39  30 NW10G20   29.76S
$$

 *****  OTHER OBSERVATIONS NORTHEAST NORTH DAKOTA  *****

CITY           SKY/WX    TMP DP  RH WIND       PRES   REMARKS
WALHALLA       NOT AVBL
LANGDON        CLOUDY    64  64 100 N12G18    29.58S
CAVALIER       PTSUNNY   64  64 100 N6        29.54R
GRAFTON        CLOUDY    63  63 100 NE12      29.54S
CANDO          NOT AVBL
FORT TOTTEN      N/A     67  60  77 N6        29.95S
ROLLA            N/A     64  54  68 N16G23    29.62R
RUGBY          NOT AVBL
 ***** THE ABOVE OBSERVATIONS ARE NON NWS ARE NOT QUALITY
        CONTROLLED AND MAY MIS-REPORT RAIN FOR SNOW...
$$

 *****  OTHER OBSERVATIONS SOUTHEAST NORTH DAKOTA *****

CITY           SKY/WX    TMP DP  RH WIND       PRES   REMARKS
COOPERSTOWN    CLOUDY    64  63  94 NW13      29.53S
VALLEY CITY    PTSUNNY   66  66 100 NW9       29.54S
OAKES          NOT AVBL
GWINNER        CLOUDY    70  61  73 NW16G25   29.51R
SHEYENNE NWR     N/A     65  65 100 NW7       29.95S
BUFFALO        NOT AVBL
WYNDMERE       NOT AVBL
 ***** THE ABOVE OBSERVATIONS ARE NON NWS ARE NOT QUALITY
       CONTROLLED AND MAY MIS-REPORT RAIN FOR SNOW...
$$

  *****  WEATHER ACROSS NORTHERN MINNESOTA  *****

CITY           SKY/WX    TMP DP  RH WIND       PRES   REMARKS
FLAG ISLAND    FAIR      63  54  72 SE5       29.59R
WARROAD        DRIZZLE   61  55  82 E8        29.59S
ROSEAU         RAIN      61  55  82 E3        29.58S
HALLOCK        RAIN      63  61  94 NE8       29.54F
THF RVR FALLS  LGT RAIN  61  57  88 E13       29.53F
HALSTAD          N/A     63  63 100 SE5         N/A
FOSSTON        DRIZZLE   59  57  94 E6        29.52F
BAUDETTE       CLOUDY    61  54  77 E8        29.59F
WASKISH        CLOUDY    61  55  82 E6        29.58S
CROOKSTON      HVY RAIN  59  57  94 E12       29.49F
$$
  *****  WEATHER ACROSS CENTRAL AND WEST MINNESOTA  *****

CITY           SKY/WX    TMP DP  RH WIND       PRES   REMARKS
BEMIDJI        CLOUDY    60  57  91 E9        29.56R FOG
PARK RAPIDS    CLOUDY    62  58  86 E10       29.52R
WADENA         LGT RAIN  64  63  94 SE7       29.50R
DETROIT LAKES  CLOUDY    66  63  88 S6        29.50S
MOORHEAD       CLOUDY    66  63  88 SW7       29.48S FOG
FERGUS FALLS   CLOUDY    66  64  94 S7        29.44S
ELBOW LAKE     CLOUDY    67  64  90 S8        29.46F
MORRIS MN      PTSUNNY   72  63  73 W18G29    29.47R
STAPLES        RAIN      63  63 100 SE7       29.51S
WHEATON        PTSUNNY   70  63  78 W12G17    29.47S
$$
  *****  WEATHER ELSEWHERE ACROSS MINNESOTA  *****

CITY           SKY/WX    TMP DP  RH WIND       PRES   REMARKS
DULUTH         RAIN      54  54 100 E9        29.63F FOG
INTRNTL FALLS  LGT RAIN  61  53  75 SE7       29.62S
ELY            PTSUNNY   64  52  63 SE10      29.66S
CLOQUET        HVY RAIN  55  54  94 E8        29.62F
BRAINERD       LGT RAIN  60  59  96 SE7       29.54F
HIBBING        CLOUDY    60  52  74 SE12      29.62F
ALEXANDRIA     PTSUNNY   67  64  90 S17       29.49F
SAINT CLOUD    LGT RAIN  66  66 100 S10       29.53F
MINNEAPOLIS    CLOUDY    68  64  87 SE13G20   29.59F
$$

  *****  WEATHER ACROSS SOUTH DAKOTA  *****

CITY           SKY/WX    TMP DP  RH WIND       PRES   REMARKS
SIOUX FALLS    FAIR      74  66  76 SW9       29.61F
BROOKINGS      FAIR      74  64  71 W15       29.58F
WATERTOWN      FAIR      69  60  73 W15G24    29.55R
HURON          FAIR      76  63  64 NW16      29.58F
SISSETON         N/A     71  63  75 W28G33    29.46R
ABERDEEN       PTSUNNY   73  62  68 NW10      29.57R
MITCHELL       FAIR      78  62  57 NW13      29.61S
PIERRE         FAIR      74  58  57 NW18      29.66R
MOBRIDGE       FAIR      77  54  44 N17G23    29.61F
RAPID CITY     FAIR      73  53  49 NW15G23   29.80S
$$

  *****  SOME WEATHER IN NEARBY STATES *****

CITY           SKY/WX    TMP DP  RH WIND       PRES   REMARKS
GLASGOW MT     PTSUNNY   68  38  33 SE15      29.71F
GREAT FALLS MT FAIR      71  38  29 W14       29.77S
CHEYENNE WY    FAIR      71  41  33 S16       29.98F
SCOTTSBLUFF NE FAIR      73  51  46 NW8       29.88F
OMAHA NE       FAIR      79  69  71 S14       29.69F
DES MOINES IA  PTSUNNY   79  66  64 S23G29    29.71F
DAVENPORT IA   NOT AVBL
CHICAGO IL     LGT RAIN  65  56  72 S9        30.00R
EAU CLAIRE WI  RAIN      65  63  93 S9        29.68F FOG
LA CROSSE WI   LGT RAIN  70  66  87 S14       29.72F
$$

  *****  SOME NATIONAL WEATHER *****

CITY           SKY/WX    TMP DP  RH WIND       PRES   REMARKS
LA GUARDIA NY  FAIR      74  49  41 W10G17    30.12R
RALEIGH NC     FAIR      79  52  38 VRB6      30.23S
ATLANTA GA     FAIR      82  61  48 E10       30.18R
NEW ORLEANS LA PTSUNNY   82  72  71 S7        30.01R
OKLAHOMA CITY  FAIR      84  64  50 S22G29    29.91S
ALBUQUERQUE NM PTSUNNY   77  22  13 SW8       30.09S
SALT LAKE CITY FAIR      79  41  25 VRB6      29.88F
LOS ANGELES CA FAIR      68  59  73 SE6       29.89S
BOISE ID       FAIR      71  40  32 NW6       29.89R
SEATTLE WA     CLOUDY    57  50  77 SW9       30.04S
$$

*** WEATHER ACROSS MANITOBA...SASKATCHEWAN AND ONTARIO ***
                ***ONTARIO***

CITY           SKY/WX    TMP DP  RH WIND       PRES   REMARKS
GERALDTON      PTSUNNY   73  50  43 VRB6      29.76F
THUNDER BAY    CLOUDY    64  52  63 E13       29.73S
SIOUX LOOKOUT  PTSUNNY   70  54  56 E6        29.67F
TORONTO        MOSUNNY   73  54  49 W9G20     30.07S
BIG TROUT LK   CLOUDY    52  46  82 E9        29.85R
PICKLE LAKE    PTSUNNY   64  52  63 E7        29.75F
DRYDEN         PTSUNNY   70  52  52 E9        29.63F
KENORA         PTSUNNY   63  54  72 SE5       29.62S
$$
                *** MANITOBA***

CITY           SKY/WX    TMP DP  RH WIND       PRES   REMARKS
BRANDON        PTSUNNY   70  55  60 NW8       29.60S
DAUPHIN        SUNNY     70  57  64 W15       29.57R
ISLAND LAKE    LGT RAIN  52  48  87 E6        29.75R
PILOT MOUND      N/A     64  57  77 NW15G21     N/A
THE PAS        DRZL/FOG  52  52 100 NE6       29.57R VSB 1
THOMPSON       LGT RAIN  46  39  76 E13G25    29.77R
WINNIPEG       LGT RAIN  64  63  94 S9        29.56S
LYNN LAKE      CLOUDY    48  34  57 E15G22    29.80R
CHURCHILL      PTSUNNY   46  41  81 SE14G22   30.04S
GILLAM         PTSUNNY   46  39  76 E8G20     29.90S
$$
                ***SASKATCHEWAN***

CITY           SKY/WX    TMP DP  RH WIND       PRES   REMARKS
ESTEVAN        MOSUNNY   66  48  52 NW15      29.70F
KINDERSLEY     MOSUNNY   66  48  52 S7        29.68S
LLOYDMINSTER   PTSUNNY   59  50  72 W12       29.65S
PRINCE ALBERT  MOSUNNY   64  50  59 NW12G20   29.64S
REGINA         MOSUNNY   66  48  52 NW9       29.70F
YORKTON        SUNNY     68  50  52 NW21      29.64R



USA.gov is the U.S. government's official web portal to all federal, state and local government web resources and services.